This is the latest recevied weather packets stored in our database for station/object s59zo-6. If no packets are shown the sender has not sent any weather packets the latest 10 day(s).
| Time | Temp. | Humidity | Pressure | Rain* | Wind** | Luminosity | Snow |
|---|---|---|---|---|---|---|---|
| 1787583005 | 29.44° C | 31% | 1020.2 hPa | 0 mm | - | - | - |
| 1787582704 | 29.44° C | 31% | 1020.3 hPa | 0 mm | - | - | - |
| 1787582405 | 28.89° C | 31% | 1020.3 hPa | 0 mm | - | - | - |
| 1787582104 | 28.89° C | 31% | 1020.5 hPa | 0 mm | - | - | - |
| 1787581805 | 28.89° C | 31% | 1020.3 hPa | 0 mm | - | - | - |
| 1787581504 | 28.89° C | 31% | 1020.3 hPa | 0 mm | - | - | - |
| 1787581204 | 28.33° C | 32% | 1020.4 hPa | 0 mm | - | - | - |
| 1787580905 | 28.33° C | 32% | 1020.4 hPa | 0 mm | - | - | - |
| 1787580604 | 28.33° C | 31% | 1020.4 hPa | 0 mm | - | - | - |
| 1787580304 | 28.89° C | 32% | 1020.3 hPa | 0 mm | - | - | - |
| 1787580005 | 28.89° C | 32% | 1020.4 hPa | 0 mm | - | - | - |
| 1787579704 | 28.33° C | 32% | 1020.3 hPa | 0 mm | - | - | - |
| 1787579405 | 28.33° C | 32% | 1020.5 hPa | 0 mm | - | - | - |
| 1787579104 | 28.33° C | 31% | 1020.5 hPa | 0 mm | - | - | - |
| 1787578804 | 28.33° C | 32% | 1020.5 hPa | 0 mm | - | - | - |
| 1787578504 | 28.33° C | 31% | 1020.6 hPa | 0 mm | - | - | - |
| 1787578205 | 28.33° C | 32% | 1020.7 hPa | 0 mm | - | - | - |
| 1787577904 | 28.33° C | 31% | 1020.6 hPa | 0 mm | - | - | - |
| 1787577605 | 28.33° C | 32% | 1020.8 hPa | 0 mm | - | - | - |
| 1787577304 | 27.78° C | 32% | 1021 hPa | 0 mm | - | - | - |
| 1787577004 | 28.33° C | 31% | 1020.9 hPa | 0 mm | - | - | - |
| 1787576705 | 28.33° C | 32% | 1020.9 hPa | 0 mm | - | - | - |
| 1787576404 | 28.33° C | 31% | 1021 hPa | 0 mm | - | - | - |
| 1787576104 | 28.33° C | 31% | 1021.1 hPa | 0 mm | - | - | - |
| 1787575804 | 28.33° C | 32% | 1021.1 hPa | 0 mm | - | - | - |
* Rain latest hour (hover to see other rain measurements)
** Current wind speed in m/s (hover to see current wind gust speed)